Find Starlink 30272

NORAD ID: 57860 Int'l Des: 2023-141 Owner: SPXS Country: US Constellation: starlink operational
LEOCIRCULAR

Live-Position

3D-Globus wird geladen...

Über Starlink 30272

Beschreibung wird geladen...

Nächste Überflüge

Passes for default location (London). Set your location on the main map for personalized predictions.

Höhenverlauf

Loading altitude history...

Zweizeiliger Elementsatz

1 57860U 23141W 26125.08876515 .00008714 00000-0 29218-3 0 9998
2 57860 53.1601 22.1032 0001341 97.2220 262.8934 15.31705464148963
Epoch: 5. Mai 2026 • Age: 12 hours

Aktueller Status

Höhe 489.5 km
Geschwindigkeit 7.62 km/s
Subsatellitenpunkt -51.54°S, 128.28°W
Startdatum 12. Sept. 2023
Alter 2.6 years
Typ internet

Technische Details

Klassifizierung Payload
Masse 730.00 kg
Trockenmasse 700.00 kg
Gesamtmasse 730.00 kg
Länge 0.30 m
Durchmesser 4.10 m
Spannweite 29.00 m
Form Box + pan
Hersteller SPXS
Bus-Typ Starlink V2M
Phasenstatus In Orbit
Besitzer/Staat SPXS/US

Most Searched